Probability
3 3 1 0 1 2 4 4 4 4 3 3 2 1 2 3 2 2 3 5 6 6 6 6 6 6 6 5 3 2 1 1 1 2 2 2 1 1 1 0 0 0 0
3 3 2 1 1 1 1 2 3 3 2 3 3 3 4 3 3 2 2 4 5 6 6 6 6 6 6 5 4 3 2 2 1 1 2 2 2 2 2 1 1 1 1
5 5 4 3 3 1 0 0 1 1 1 2 4 4 4 3 3 2 3 3 4 5 6 6 7 7 7 6 5 4 4 4 3 1 1 1 1 1 2 2 2 2 2
9 7 7 7 6 4 2 1 1 0 0 1 2 3 3 2 2 2 3 3 3 4 5 6 7 8 9 8 7 7 7 7 5 2 1 1 1 1 3 4 4 4 4
12 11 11 12 11 9 7 6 4 2 2 2 2 2 2 2 1 1 3 3 3 4 5 6 8 9 10 10 9 8 8 8 7 5 3 3 3 4 5 5 6 5 5
13 13 14 15 15 14 12 11 9 7 6 5 5 4 2 1 1 1 1 2 3 3 4 6 7 9 9 9 7 7 6 7 7 6 5 5 4 5 6 6 6 6 5
13 13 14 15 16 16 15 13 12 11 9 8 7 5 3 2 2 1 1 2 3 2 3 4 6 7 8 7 6 5 4 4 5 5 4 3 3 4 5 6 6 5 4
12 13 13 14 14 15 15 13 11 11 10 9 7 5 3 3 3 3 3 3 3 3 3 3 4 5 6 6 6 5 4 3 3 3 3 1 1 2 4 4 4 4 3
11 12 13 13 13 14 14 12 10 9 9 8 6 4 3 2 2 2 3 3 3 3 3 3 3 4 4 4 4 4 3 3 3 3 2 1 0 1 2 2 3 3 2
9 10 12 13 13 13 12 11 9 7 6 5 4 3 2 1 1 1 1 2 2 3 3 3 3 3 2 2 2 3 3 3 3 3 3 1 1 1 1 1 1 2 3
7 9 11 12 12 11 11 10 7 5 4 3 3 2 1 0 0 0 0 1 1 1 3 3 2 1 1 0 1 2 2 3 3 3 3 3 2 2 2 1 1 3 3
8 8 10 11 10 10 9 8 6 4 3 3 3 1 0 0 0 0 0 0 0 1 2 2 1 0 0 0 0 1 1 1 3 3 3 3 3 3 3 3 3 3 3
9 9 9 9 10 9 8 6 5 4 3 3 2 1 0 0 0 0 0 0 0 0 1 1 0 0 0 0 0 0 0 1 2 3 3 3 3 3 3 3 3 3 3
8 8 9 9 9 8 6 5 5 4 3 2 1 0 0 0 0 0 0 0 0 0 0 0 0 0 0 0 0 0 0 0 1 2 3 4 4 3 3 3 3 3 3
6 7 9 10 8 6 4 3 4 3 1 1 0 0 0 0 0 0 0 0 0 0 0 0 0 0 0 0 0 0 0 0 0 1 2 4 5 4 4 4 4 3 3
6 8 10 10 7 5 4 4 4 3 1 0 0 0 0 0 0 0 0 0 0 0 0 0 0 0 0 0 0 0 0 0 0 1 2 3 4 5 5 6 5 4 4
6 7 8 8 7 6 6 6 5 3 1 0 0 0 0 0 0 0 0 0 0 0 0 0 0 0 0 0 0 0 0 0 0 1 2 2 3 4 6 6 6 5 5
5 5 5 6 6 6 6 6 6 5 2 1 1 0 0 0 0 0 0 0 0 0 0 0 0 0 0 0 0 0 0 0 0 1 2 2 2 3 5 6 6 6 5
2 2 3 4 4 5 6 6 6 6 5 3 2 1 0 0 0 0 0 0 0 0 0 0 0 0 0 0 0 0 0 0 0 0 1 1 1 2 4 5 6 5 5
0 1 3 3 3 4 5 6 6 6 6 5 3 1 0 0 0 0 0 0 0 0 0 0 0 0 0 0 0 0 0 0 0 0 0 0 0 1 2 4 5 5 5
1 2 3 3 3 3 4 4 5 6 5 4 2 1 0 0 1 1 1 0 0 0 0 0 0 0 0 0 0 0 0 0 0 0 0 0 1 2 2 2 3 4 4
3 3 3 3 3 3 3 3 4 4 3 2 1 1 1 0 1 2 2 1 1 1 0 0 0 0 0 0 0 0 0 0 0 0 0 0 1 2 2 1 2 3 3
3 3 3 3 3 3 3 3 3 3 3 1 1 1 1 0 1 1 2 2 2 2 1 0 0 0 0 0 0 0 0 0 0 0 0 0 0 1 1 0 1 2 2
3 3 3 3 3 3 3 3 3 3 3 2 1 1 1 0 0 0 1 2 3 3 2 1 0 0 0 0 0 0 0 0 0 0 0 0 0 0 0 0 0 1 1
2 3 3 3 3 3 3 2 2 2 2 1 0 0 0 0 0 0 0 1 2 3 3 2 1 0 0 0 0 0 0 0 0 0 0 0 0 0 0 0 0 0 0
1 2 3 3 3 3 2 1 1 1 1 0 0 0 0 0 0 0 0 0 1 3 3 3 2 1 0 0 0 0 0 0 0 0 0 0 0 0 0 0 0 0 0
Wind_Speed
2 2 2 2 1 1 1 0 0 1 1 1 0 1 1 1 1 1 1 1 1 1 1 1 1 0 0 0 0 1 1 1 2 2 2 1 1 2 2 2 2 3 3
3 3 2 1 1 1 1 0 0 0 1 0 0 1 1 1 1 1 1 1 1 1 1 0 1 1 1 1 0 0 1 1 2 2 2 1 2 2 2 2 2 2 3
3 3 2 1 1 1 0 0 0 0 1 1 1 1 1 1 1 1 0 1 1 1 1 1 1 0 1 1 1 1 1 1 0 1 2 2 1 2 1 2 2 2 3
3 3 2 1 1 1 0 0 0 0 1 1 1 1 1 1 2 2 1 1 1 1 1 1 1 1 1 1 1 1 1 0 0 1 1 1 1 2 1 1 2 2 3
3 3 2 1 1 1 1 0 0 0 1 1 1 2 2 1 1 1 1 1 1 1 1 1 1 1 1 1 1 1 1 1 1 1 1 1 2 1 1 2 2 2 3
3 2 1 1 1 0 1 1 0 1 1 1 1 1 2 2 3 2 1 1 1 1 1 1 1 1 2 2 2 1 2 3 3 2 2 2 3 2 2 2 1 1 3
3 2 1 1 1 0 0 0 1 1 0 0 0 1 1 3 2 2 3 1 1 1 1 1 1 2 1 1 2 2 1 1 2 4 3 4 4 3 2 2 2 2 4
2 2 1 1 1 1 1 1 1 1 1 1 1 1 1 2 2 2 2 1 1 1 1 1 1 2 1 1 1 1 2 2 2 2 3 4 4 3 3 3 3 2 2
2 2 2 1 1 1 1 2 1 1 1 1 1 1 1 3 3 2 2 1 1 2 2 2 1 2 3 1 1 0 2 3 3 2 3 3 3 3 1 1 0 0 1
2 3 2 2 2 2 2 2 1 1 1 1 1 1 0 1 3 3 3 1 2 2 3 3 2 2 3 2 2 1 1 3 2 3 3 3 2 2 1 1 2 1 1
2 2 1 2 2 2 1 1 1 1 1 1 1 1 1 1 2 3 3 1 2 2 2 3 3 4 3 3 2 3 4 3 2 1 1 2 2 1 1 1 1 2 2
2 2 1 1 2 1 1 1 1 1 1 1 1 1 1 1 2 2 2 2 2 2 3 3 3 4 4 3 2 3 3 1 1 0 1 1 2 2 2 2 2 2 2
2 1 1 1 1 1 1 1 1 1 0 1 1 1 2 2 2 3 3 4 4 2 3 4 4 4 3 2 3 3 2 1 1 1 1 2 2 3 1 1 2 2 2
2 1 1 1 1 1 1 1 1 1 1 1 1 1 2 2 2 2 3 3 3 3 3 4 4 3 2 2 2 2 1 1 1 2 2 2 2 1 1 1 1 1 1
1 1 1 1 1 1 1 1 2 2 3 3 3 2 2 2 4 4 2 2 2 2 2 2 2 2 2 2 2 2 1 1 1 1 1 2 2 1 2 1 0 0 1
1 1 1 1 1 1 1 2 2 2 2 2 3 3 3 4 4 4 4 4 4 2 1 1 1 1 1 2 2 2 2 2 2 2 1 2 2 2 2 1 1 1 1
2 2 2 2 2 2 2 2 2 3 3 3 3 3 3 4 4 4 4 4 3 0 1 1 1 2 2 2 2 2 2 2 2 2 2 2 2 2 2 2 1 1 2
2 2 2 2 2 2 2 2 2 2 2 3 3 4 4 4 4 4 3 1 2 1 2 2 3 3 2 2 2 3 3 3 2 2 2 2 2 2 2 2 2 2 2
1 2 2 2 2 2 2 2 2 2 2 2 2 3 5 4 4 4 2 1 2 3 3 3 3 3 3 3 3 3 3 3 3 2 2 3 3 2 2 2 2 3 2
2 3 2 1 1 1 1 1 1 2 2 2 2 3 2 1 1 2 2 2 2 3 3 3 3 3 3 3 3 3 3 3 3 3 3 3 3 3 3 3 3 2 2
1 1 1 0 1 1 1 2 2 2 2 2 3 3 2 2 3 3 2 3 3 3 3 3 3 3 3 3 3 3 4 4 4 4 4 4 3 3 3 3 3 2 2
1 1 1 1 1 1 1 1 1 1 2 2 3 3 3 2 2 3 3 3 4 4 3 3 3 3 3 3 3 3 4 4 4 3 3 3 3 3 3 2 2 2 2
1 1 1 1 1 1 1 1 1 2 2 2 2 2 2 2 3 3 4 4 4 3 3 3 3 3 3 3 3 3 4 5 4 4 4 4 3 3 2 3 3 3 3
1 1 1 1 1 1 1 1 1 2 2 2 2 2 2 3 3 3 4 3 3 3 3 2 3 4 4 3 3 3 3 4 4 4 4 4 4 3 3 3 3 4 4
1 0 1 1 1 1 1 1 2 2 2 2 2 3 3 3 3 3 3 3 3 3 3 3 3 3 5 5 4 4 5 5 4 4 3 3 4 4 3 3 3 3 3
0 0 1 1 1 1 1 1 2 2 2 3 3 3 3 3 3 3 3 2 3 3 3 3 4 4 5 4 5 5 5 4 4 5 3 3 4 3 3 3 4 4 4
Wind_Direction
124 114 112 116 129 118 112 135 190 303 332 13 24 19 2 1 4 16 4 20 32 349 345 48 327 304 338 309 203 174 190 185 225 270 285 288 256 251 259 250 243 230 232
141 121 122 113 107 114 135 243 224 314 324 326 32 36 7 7 4 14 2 2 342 314 303 4 317 336 354 308 292 230 215 209 195 251 288 296 276 250 241 238 254 245 236
130 121 114 109 109 128 181 342 47 28 14 24 36 33 349 343 343 333 343 322 313 292 276 252 274 329 330 313 301 266 251 237 175 199 271 285 291 278 271 266 259 261 253
124 120 124 143 154 161 108 40 1 20 39 25 24 21 7 354 350 344 349 335 316 300 283 272 273 249 237 241 245 257 231 196 174 191 257 284 288 287 264 269 278 278 262
129 133 159 170 132 109 92 38 5 20 46 44 39 9 349 345 343 358 349 348 331 320 308 293 287 3 25 297 270 229 192 191 204 220 240 272 281 287 261 258 257 270 272
137 165 181 143 114 131 186 173 82 42 42 54 43 359 345 334 354 15 30 355 357 350 321 304 307 329 338 343 347 301 213 202 216 223 240 243 257 252 252 248 249 251 268
154 165 167 158 152 196 236 187 193 196 106 20 299 303 304 315 349 30 42 40 18 357 321 302 314 341 335 313 340 359 343 297 215 206 222 242 245 243 236 246 239 233 240
154 157 165 173 193 213 197 221 238 232 225 261 294 287 296 331 13 33 28 16 3 314 278 255 258 293 318 334 360 5 336 313 279 226 227 243 244 239 221 222 221 240 269
164 180 191 190 201 216 227 242 231 215 250 257 262 290 340 326 347 1 19 0 345 322 309 304 268 270 298 339 85 353 327 321 326 328 305 293 290 279 235 126 89 108 287
188 192 195 189 191 214 229 238 237 213 238 253 287 285 254 310 339 353 1 340 332 319 321 320 312 298 288 246 186 191 262 283 308 338 350 344 326 312 314 195 195 197 235
178 168 187 198 201 210 216 230 259 254 256 250 263 291 304 311 327 346 350 334 294 304 311 309 305 309 292 266 225 210 236 256 261 261 309 330 334 325 304 285 218 194 204
135 138 185 225 225 205 197 236 258 246 253 265 284 311 314 306 321 333 335 312 304 282 283 287 292 302 294 282 262 266 269 273 254 294 316 310 301 294 290 286 269 239 223
134 177 215 233 244 227 200 234 263 260 234 268 271 287 300 305 304 303 300 300 308 290 280 291 297 294 294 296 311 302 293 253 224 256 271 271 263 261 282 313 311 301 286
167 217 238 236 262 278 259 218 235 249 223 228 244 274 293 299 296 307 310 311 318 314 307 312 310 308 319 325 336 331 309 240 202 229 253 266 282 304 307 293 301 322 334
200 226 240 228 217 230 263 258 238 243 218 205 213 210 234 275 276 281 293 310 313 309 321 338 350 355 349 344 343 335 329 339 297 287 270 287 295 298 292 283 269 307 251
203 241 228 219 221 214 220 306 305 265 278 249 224 212 240 250 267 291 306 309 318 336 46 351 316 301 288 289 299 310 307 287 273 269 266 262 264 264 275 286 263 220 245
207 227 227 217 219 226 223 224 279 312 321 307 279 266 265 278 287 293 304 313 317 14 137 265 272 271 267 268 268 270 274 274 271 263 261 264 261 262 266 265 259 258 261
227 240 232 223 221 222 223 227 227 238 284 296 291 279 283 287 288 287 289 332 328 294 234 243 252 259 257 256 260 263 270 283 279 272 272 269 260 252 259 264 256 248 255
249 249 238 234 226 221 225 232 243 249 250 267 302 304 288 281 286 289 272 219 244 255 253 254 255 255 258 261 261 259 259 262 268 263 268 271 267 255 255 256 256 262 261
252 261 257 223 213 214 227 228 245 253 254 253 260 272 290 299 290 284 256 250 250 259 260 258 258 260 264 264 266 266 264 259 259 259 262 263 263 258 255 255 250 254 257
249 260 290 298 222 220 225 229 227 229 240 254 263 263 231 227 247 256 252 247 246 251 255 255 254 257 261 262 262 265 266 266 260 257 259 260 257 256 257 254 257 256 263
189 226 235 235 238 238 238 239 232 233 253 265 279 286 256 247 255 257 258 257 253 250 248 247 253 256 255 257 260 261 261 266 271 270 264 258 251 250 251 246 245 251 251
195 237 268 277 256 256 254 256 253 257 267 276 277 280 272 258 257 257 260 262 262 262 260 255 256 264 265 260 256 255 258 257 255 254 257 259 257 250 243 242 243 243 251
191 220 234 255 271 265 272 280 269 267 271 275 277 275 271 263 263 266 267 269 266 266 262 259 260 265 269 273 269 261 261 265 265 255 252 254 255 248 237 242 244 242 239
143 175 221 229 250 255 266 279 281 279 280 282 282 280 281 277 275 277 279 279 278 274 270 263 263 263 265 266 271 273 270 266 261 268 259 253 249 242 236 238 243 248 246
158 211 238 249 259 272 274 275 277 280 282 286 287 282 280 278 276 276 279 283 283 276 270 263 271 270 272 266 268 275 276 275 273 270 261 256 253 246 239 238 245 243 246